Time,TemperatureF,DewpointF,PressureIn,WindDirection,WindDirectionDegrees,WindSpeedMPH,WindSpeedGustMPH,Humidity,HourlyPrecipIn,Conditions,Clouds,dailyrainin,SolarRadiationWatts/m^2,SoftwareType,DateUTC
2013-10-01 00:09:00,81.8,74.6,29.89,North,-999,0.0,0.0,79,0.00,,,-99.99,0,WeatherLink 5.4,2013-10-01 04:09:00,
2013-10-01 00:10:00,81.7,74.2,29.89,North,-999,0.0,0.0,78,0.00,,,-99.99,0,WeatherLink 5.4,2013-10-01 04:10:00,
2013-10-01 00:20:00,81.5,74.4,29.88,North,-999,0.0,0.0,79,0.00,,,-99.99,0,WeatherLink 5.4,2013-10-01 04:20:00,
2013-10-01 00:24:00,81.5,74.4,29.88,North,-999,0.0,0.0,79,0.00,,,-99.99,0,WeatherLink 5.4,2013-10-01 04:24:00,
2013-10-01 00:39:00,81.1,74.3,29.88,North,-999,0.0,0.0,80,0.00,,,-99.99,0,WeatherLink 5.4,2013-10-01 04:39:00,
2013-10-01 00:40:00,80.7,74.3,29.88,North,-999,0.0,0.0,81,0.00,,,-99.99,0,WeatherLink 5.4,2013-10-01 04:40:00,
2013-10-01 00:50:00,80.3,74.3,29.87,North,-999,0.0,0.0,82,0.00,,,-99.99,0,WeatherLink 5.4,2013-10-01 04:50:00,
2013-10-01 01:09:00,80.1,74.1,29.87,North,-999,0.0,0.0,82,0.00,,,-99.99,0,WeatherLink 5.4,2013-10-01 05:09:00,
2013-10-01 01:10:00,79.9,74.3,29.87,North,-999,0.0,0.0,83,0.00,,,-99.99,0,WeatherLink 5.4,2013-10-01 05:10:00,
2013-10-01 01:20:00,79.7,74.4,29.86,North,-999,0.0,0.0,84,0.00,,,-99.99,0,WeatherLink 5.4,2013-10-01 05:20:00,
2013-10-01 01:24:00,79.7,74.4,29.86,North,-999,0.0,0.0,84,0.00,,,-99.99,0,WeatherLink 5.4,2013-10-01 05:24:00,
2013-10-01 01:39:00,79.5,74.2,29.86,North,-999,0.0,0.0,84,0.00,,,-99.99,0,WeatherLink 5.4,2013-10-01 05:39:00,
2013-10-01 01:40:00,79.4,74.1,29.86,North,-999,0.0,0.0,84,0.00,,,-99.99,0,WeatherLink 5.4,2013-10-01 05:40:00,
2013-10-01 01:50:00,79.4,74.5,29.85,North,-999,0.0,0.0,85,0.00,,,-99.99,0,WeatherLink 5.4,2013-10-01 05:50:00,
2013-10-01 01:53:00,79.4,74.5,29.85,North,-999,0.0,0.0,85,0.00,,,-99.99,0,WeatherLink 5.4,2013-10-01 05:53:00,
2013-10-01 02:08:00,79.4,74.8,29.84,North,-999,0.0,0.0,86,0.00,,,-99.99,0,WeatherLink 5.4,2013-10-01 06:08:00,
2013-10-01 02:10:00,79.5,74.6,29.84,North,-999,0.0,0.0,85,0.00,,,-99.99,0,WeatherLink 5.4,2013-10-01 06:10:00,
2013-10-01 02:20:00,79.6,74.3,29.84,North,-999,0.0,0.0,84,0.00,,,-99.99,0,WeatherLink 5.4,2013-10-01 06:20:00,
2013-10-01 02:24:00,79.6,74.3,29.84,North,-999,0.0,0.0,84,0.00,,,-99.99,0,WeatherLink 5.4,2013-10-01 06:24:00,
2013-10-01 02:39:00,79.5,74.2,29.83,North,-999,0.0,0.0,84,0.00,,,-99.99,0,WeatherLink 5.4,2013-10-01 06:39:00,
2013-10-01 02:40:00,79.4,74.5,29.83,North,-999,0.0,0.0,85,0.00,,,-99.99,0,WeatherLink 5.4,2013-10-01 06:40:00,
2013-10-01 02:50:00,79.4,74.5,29.83,North,-999,0.0,0.0,85,0.00,,,-99.99,0,WeatherLink 5.4,2013-10-01 06:50:00,
2013-10-01 02:54:00,79.4,74.5,29.83,North,-999,0.0,0.0,85,0.00,,,-99.99,0,WeatherLink 5.4,2013-10-01 06:54:00,
2013-10-01 03:00:00,79.4,74.5,29.83,North,-999,0.0,0.0,85,0.00,,,-99.99,0,WeatherLink 5.4,2013-10-01 07:00:00,
2013-10-01 03:10:00,79.1,74.2,29.83,North,-999,0.0,0.0,85,0.00,,,-99.99,0,WeatherLink 5.4,2013-10-01 07:10:00,
2013-10-01 03:20:00,78.8,73.9,29.83,North,-999,0.0,0.0,85,0.00,,,-99.99,0,WeatherLink 5.4,2013-10-01 07:20:00,
2013-10-01 03:24:00,78.8,73.9,29.83,North,-999,0.0,0.0,85,0.00,,,-99.99,0,WeatherLink 5.4,2013-10-01 07:24:00,
2013-10-01 03:39:00,78.5,73.6,29.83,North,-999,0.0,0.0,85,0.00,,,-99.99,0,WeatherLink 5.4,2013-10-01 07:39:00,
2013-10-01 03:40:00,78.4,73.9,29.83,North,-999,0.0,0.0,86,0.00,,,-99.99,0,WeatherLink 5.4,2013-10-01 07:40:00,
2013-10-01 03:50:00,78.2,73.7,29.83,North,-999,0.0,0.0,86,0.00,,,-99.99,0,WeatherLink 5.4,2013-10-01 07:50:00,
2013-10-01 03:54:00,78.2,73.7,29.83,North,-999,0.0,0.0,86,0.00,,,-99.99,0,WeatherLink 5.4,2013-10-01 07:54:00,
2013-10-01 04:09:00,78.1,73.6,29.83,North,-999,0.0,0.0,86,0.00,,,-99.99,0,WeatherLink 5.4,2013-10-01 08:09:00,
2013-10-01 04:10:00,77.9,73.7,29.83,North,-999,0.0,0.0,87,0.00,,,-99.99,0,WeatherLink 5.4,2013-10-01 08:10:00,
2013-10-01 04:20:00,77.8,73.6,29.83,North,-999,0.0,0.0,87,0.00,,,-99.99,0,WeatherLink 5.4,2013-10-01 08:20:00,
2013-10-01 04:24:00,77.8,73.6,29.83,North,-999,0.0,0.0,87,0.00,,,-99.99,0,WeatherLink 5.4,2013-10-01 08:24:00,
2013-10-01 04:39:00,77.7,73.5,29.83,North,-999,0.0,0.0,87,0.00,,,-99.99,0,WeatherLink 5.4,2013-10-01 08:39:00,
2013-10-01 04:40:00,77.6,73.8,29.83,North,-999,0.0,0.0,88,0.00,,,-99.99,0,WeatherLink 5.4,2013-10-01 08:40:00,
2013-10-01 04:50:00,77.4,73.6,29.84,North,-999,0.0,0.0,88,0.00,,,-99.99,0,WeatherLink 5.4,2013-10-01 08:50:00,
2013-10-01 04:53:00,77.4,73.6,29.84,North,-999,0.0,0.0,88,0.00,,,-99.99,0,WeatherLink 5.4,2013-10-01 08:53:00,
2013-10-01 05:08:00,77.2,73.4,29.84,North,-999,0.0,0.0,88,0.00,,,-99.99,0,WeatherLink 5.4,2013-10-01 09:08:00,
2013-10-01 05:10:00,77.1,73.3,29.84,North,-999,0.0,0.0,88,0.00,,,-99.99,0,WeatherLink 5.4,2013-10-01 09:10:00,
2013-10-01 05:20:00,77.0,73.2,29.84,North,-999,0.0,0.0,88,0.00,,,-99.99,0,WeatherLink 5.4,2013-10-01 09:20:00,
2013-10-01 05:25:00,77.0,73.2,29.84,North,-999,0.0,0.0,88,0.00,,,-99.99,0,WeatherLink 5.4,2013-10-01 09:25:00,
2013-10-01 05:40:00,76.8,73.0,29.84,North,-999,0.0,0.0,88,0.00,,,-99.99,0,WeatherLink 5.4,2013-10-01 09:40:00,
2013-10-01 05:50:00,76.8,73.3,29.84,North,-999,0.0,0.0,89,0.00,,,-99.99,0,WeatherLink 5.4,2013-10-01 09:50:00,
2013-10-01 05:55:00,76.8,73.3,29.84,North,-999,0.0,0.0,89,0.00,,,-99.99,0,WeatherLink 5.4,2013-10-01 09:55:00,
2013-10-01 06:09:00,76.7,73.2,29.85,North,-999,0.0,0.0,89,0.00,,,-99.99,0,WeatherLink 5.4,2013-10-01 10:09:00,
2013-10-01 06:10:00,76.7,73.2,29.85,North,-999,0.0,0.0,89,0.00,,,-99.99,0,WeatherLink 5.4,2013-10-01 10:10:00,
2013-10-01 06:20:00,76.7,73.2,29.85,North,-999,0.0,0.0,89,0.00,,,-99.99,6,WeatherLink 5.4,2013-10-01 10:20:00,
2013-10-01 06:24:00,76.7,73.2,29.85,North,-999,0.0,0.0,89,0.00,,,-99.99,6,WeatherLink 5.4,2013-10-01 10:24:00,
2013-10-01 06:39:00,76.7,73.5,29.85,North,-999,0.0,0.0,90,0.00,,,-99.99,9,WeatherLink 5.4,2013-10-01 10:39:00,
2013-10-01 06:40:00,76.7,73.5,29.85,North,-999,0.0,0.0,90,0.00,,,-99.99,26,WeatherLink 5.4,2013-10-01 10:40:00,
2013-10-01 06:50:00,76.7,73.5,29.86,North,-999,0.0,0.0,90,0.00,,,-99.99,34,WeatherLink 5.4,2013-10-01 10:50:00,
2013-10-01 06:54:00,76.7,73.5,29.86,North,-999,0.0,0.0,90,0.00,,,-99.99,34,WeatherLink 5.4,2013-10-01 10:54:00,
2013-10-01 07:09:00,76.7,73.5,29.86,North,-999,0.0,0.0,90,0.00,,,-99.99,46,WeatherLink 5.4,2013-10-01 11:09:00,
2013-10-01 07:10:00,76.7,73.5,29.86,North,-999,0.0,0.0,90,0.00,,,-99.99,104,WeatherLink 5.4,2013-10-01 11:10:00,
2013-10-01 07:20:00,76.8,73.6,29.86,North,-999,0.0,0.0,90,0.00,,,-99.99,122,WeatherLink 5.4,2013-10-01 11:20:00,
2013-10-01 07:24:00,76.8,73.6,29.86,North,-999,0.0,0.0,90,0.00,,,-99.99,122,WeatherLink 5.4,2013-10-01 11:24:00,
2013-10-01 07:39:00,77.2,73.7,29.86,North,-999,0.0,0.0,89,0.00,,,-99.99,123,WeatherLink 5.4,2013-10-01 11:39:00,
2013-10-01 07:40:00,77.7,73.9,29.86,North,-999,0.0,0.0,88,0.00,,,-99.99,206,WeatherLink 5.4,2013-10-01 11:40:00,
2013-10-01 07:50:00,78.3,74.1,29.86,North,-999,0.0,0.0,87,0.00,,,-99.99,288,WeatherLink 5.4,2013-10-01 11:50:00,
2013-10-01 07:54:00,78.3,74.1,29.86,North,-999,0.0,0.0,87,0.00,,,-99.99,288,WeatherLink 5.4,2013-10-01 11:54:00,
2013-10-01 08:08:00,79.1,74.5,29.86,North,-999,0.0,0.0,86,0.00,,,-99.99,354,WeatherLink 5.4,2013-10-01 12:08:00,
2013-10-01 08:10:00,80.2,74.6,29.86,North,-999,0.0,0.0,83,0.00,,,-99.99,400,WeatherLink 5.4,2013-10-01 12:10:00,
2013-10-01 08:20:00,82.0,74.1,29.87,North,-999,0.0,0.0,77,0.00,,,-99.99,443,WeatherLink 5.4,2013-10-01 12:20:00,
2013-10-01 08:24:00,82.0,74.1,29.87,North,-999,0.0,0.0,77,0.00,,,-99.99,443,WeatherLink 5.4,2013-10-01 12:24:00,
2013-10-01 08:30:00,83.7,74.5,29.87,East,90,0.0,3.0,74,0.00,,,-99.99,480,WeatherLink 5.4,2013-10-01 12:30:00,
2013-10-01 08:40:00,84.7,75.1,29.87,ESE,112,0.0,6.0,73,0.00,,,-99.99,368,WeatherLink 5.4,2013-10-01 12:40:00,
2013-10-01 08:50:00,84.9,75.3,29.87,East,90,1.0,7.0,73,0.00,,,-99.99,204,WeatherLink 5.4,2013-10-01 12:50:00,
2013-10-01 08:54:00,84.9,75.3,29.87,East,90,1.0,7.0,73,0.00,,,-99.99,204,WeatherLink 5.4,2013-10-01 12:54:00,
2013-10-01 09:09:00,84.5,74.5,29.88,ESE,112,1.0,6.0,72,0.00,,,-99.99,199,WeatherLink 5.4,2013-10-01 13:09:00,
2013-10-01 09:10:00,84.5,73.6,29.88,East,90,1.0,7.0,70,0.00,,,-99.99,229,WeatherLink 5.4,2013-10-01 13:10:00,
2013-10-01 09:20:00,84.7,73.0,29.88,ESE,112,1.0,6.0,68,0.00,,,-99.99,278,WeatherLink 5.4,2013-10-01 13:20:00,
2013-10-01 09:24:00,84.7,73.0,29.88,ESE,112,1.0,6.0,68,0.00,,,-99.99,278,WeatherLink 5.4,2013-10-01 13:24:00,
2013-10-01 09:39:00,85.3,72.6,29.89,East,90,0.0,7.0,66,0.00,,,-99.99,409,WeatherLink 5.4,2013-10-01 13:39:00,
2013-10-01 09:40:00,85.9,72.3,29.89,ESE,112,1.0,10.0,64,0.00,,,-99.99,291,WeatherLink 5.4,2013-10-01 13:40:00,
2013-10-01 09:50:00,86.0,72.4,29.89,East,90,1.0,7.0,64,0.00,,,-99.99,303,WeatherLink 5.4,2013-10-01 13:50:00,
2013-10-01 10:09:00,86.3,72.7,29.89,East,90,1.0,8.0,64,0.00,,,-99.99,665,WeatherLink 5.4,2013-10-01 14:09:00,
2013-10-01 10:10:00,87.0,72.9,29.89,SE,135,1.0,7.0,63,0.00,,,-99.99,358,WeatherLink 5.4,2013-10-01 14:10:00,
2013-10-01 10:20:00,87.5,73.8,29.88,ESE,112,1.0,8.0,64,0.00,,,-99.99,358,WeatherLink 5.4,2013-10-01 14:20:00,
2013-10-01 10:24:00,87.5,73.8,29.88,ESE,112,1.0,8.0,64,0.00,,,-99.99,358,WeatherLink 5.4,2013-10-01 14:24:00,
2013-10-01 10:38:00,87.6,75.3,29.88,East,90,1.0,8.0,67,0.00,,,-99.99,246,WeatherLink 5.4,2013-10-01 14:38:00,
2013-10-01 10:40:00,87.4,75.5,29.88,East,90,1.0,8.0,68,0.00,,,-99.99,248,WeatherLink 5.4,2013-10-01 14:40:00,
2013-10-01 10:50:00,87.0,75.2,29.88,East,90,1.0,8.0,68,0.00,,,-99.99,324,WeatherLink 5.4,2013-10-01 14:50:00,
2013-10-01 10:54:00,87.0,75.2,29.88,East,90,1.0,8.0,68,0.00,,,-99.99,324,WeatherLink 5.4,2013-10-01 14:54:00,
2013-10-01 11:08:00,87.2,74.5,29.88,ESE,112,0.0,6.0,66,0.00,,,-99.99,457,WeatherLink 5.4,2013-10-01 15:08:00,
2013-10-01 11:10:00,87.6,74.4,29.88,East,90,0.0,11.0,65,0.00,,,-99.99,506,WeatherLink 5.4,2013-10-01 15:10:00,
2013-10-01 11:20:00,87.9,73.7,29.87,East,90,1.0,8.0,63,0.00,,,-99.99,519,WeatherLink 5.4,2013-10-01 15:20:00,
2013-10-01 11:25:00,87.9,73.7,29.87,East,90,1.0,8.0,63,0.00,,,-99.99,519,WeatherLink 5.4,2013-10-01 15:25:00,
2013-10-01 11:39:00,88.2,73.5,29.86,East,90,1.0,10.0,62,0.00,,,-99.99,692,WeatherLink 5.4,2013-10-01 15:39:00,
2013-10-01 11:40:00,88.9,73.7,29.86,East,90,1.0,7.0,61,0.00,,,-99.99,766,WeatherLink 5.4,2013-10-01 15:40:00,
2013-10-01 11:50:00,89.3,73.6,29.86,East,90,3.0,13.0,60,0.00,,,-99.99,758,WeatherLink 5.4,2013-10-01 15:50:00,
2013-10-01 11:54:00,89.3,73.6,29.86,East,90,3.0,13.0,60,0.00,,,-99.99,758,WeatherLink 5.4,2013-10-01 15:54:00,
2013-10-01 12:09:00,89.4,74.2,29.85,East,90,2.0,10.0,61,0.00,,,-99.99,794,WeatherLink 5.4,2013-10-01 16:09:00,
2013-10-01 12:10:00,88.9,75.1,29.85,ENE,67,1.0,8.0,64,0.00,,,-99.99,226,WeatherLink 5.4,2013-10-01 16:10:00,
2013-10-01 12:20:00,88.8,74.1,29.84,East,90,2.0,11.0,62,0.00,,,-99.99,848,WeatherLink 5.4,2013-10-01 16:20:00,
2013-10-01 12:24:00,88.8,74.1,29.84,East,90,2.0,11.0,62,0.00,,,-99.99,848,WeatherLink 5.4,2013-10-01 16:24:00,
2013-10-01 12:39:00,89.0,74.3,29.84,East,90,2.0,13.0,62,0.00,,,-99.99,500,WeatherLink 5.4,2013-10-01 16:39:00,
2013-10-01 12:40:00,88.8,73.6,29.84,ENE,67,1.0,10.0,61,0.00,,,-99.99,754,WeatherLink 5.4,2013-10-01 16:40:00,
2013-10-01 12:50:00,89.2,73.5,29.83,ENE,67,2.0,12.0,60,0.00,,,-99.99,667,WeatherLink 5.4,2013-10-01 16:50:00,
2013-10-01 12:54:00,89.2,73.5,29.83,ENE,67,2.0,12.0,60,0.00,,,-99.99,667,WeatherLink 5.4,2013-10-01 16:54:00,
2013-10-01 13:09:00,89.8,74.1,29.83,East,90,2.0,11.0,60,0.00,,,-99.99,741,WeatherLink 5.4,2013-10-01 17:09:00,
2013-10-01 13:10:00,90.2,74.4,29.83,East,90,1.0,9.0,60,0.00,,,-99.99,982,WeatherLink 5.4,2013-10-01 17:10:00,
2013-10-01 13:20:00,90.1,75.3,29.81,East,90,4.0,11.0,62,0.00,,,-99.99,940,WeatherLink 5.4,2013-10-01 17:20:00,
2013-10-01 13:24:00,90.1,75.3,29.81,East,90,4.0,11.0,62,0.00,,,-99.99,940,WeatherLink 5.4,2013-10-01 17:24:00,
2013-10-01 13:39:00,89.7,74.9,29.81,East,90,2.0,12.0,62,0.00,,,-99.99,494,WeatherLink 5.4,2013-10-01 17:39:00,
2013-10-01 13:40:00,89.5,75.7,29.81,East,90,1.0,8.0,64,0.00,,,-99.99,930,WeatherLink 5.4,2013-10-01 17:40:00,
2013-10-01 13:50:00,90.0,75.2,29.80,ENE,67,1.0,10.0,62,0.00,,,-99.99,884,WeatherLink 5.4,2013-10-01 17:50:00,
2013-10-01 13:54:00,90.0,75.2,29.80,ENE,67,1.0,10.0,62,0.00,,,-99.99,884,WeatherLink 5.4,2013-10-01 17:54:00,
2013-10-01 14:09:00,89.9,74.6,29.80,East,90,3.0,14.0,61,0.00,,,-99.99,752,WeatherLink 5.4,2013-10-01 18:09:00,
2013-10-01 14:10:00,89.8,74.1,29.80,East,90,3.0,12.0,60,0.00,,,-99.99,706,WeatherLink 5.4,2013-10-01 18:10:00,
2013-10-01 14:20:00,89.9,75.1,29.80,ENE,67,2.0,11.0,62,0.00,,,-99.99,812,WeatherLink 5.4,2013-10-01 18:20:00,
2013-10-01 14:24:00,89.9,75.1,29.80,ENE,67,2.0,11.0,62,0.00,,,-99.99,812,WeatherLink 5.4,2013-10-01 18:24:00,
2013-10-01 14:39:00,89.8,75.0,29.79,East,90,2.0,11.0,62,0.00,,,-99.99,748,WeatherLink 5.4,2013-10-01 18:39:00,
2013-10-01 14:40:00,89.9,74.6,29.79,East,90,2.0,11.0,61,0.00,,,-99.99,731,WeatherLink 5.4,2013-10-01 18:40:00,
2013-10-01 14:50:00,89.9,74.6,29.79,East,90,2.0,11.0,61,0.00,,,-99.99,677,WeatherLink 5.4,2013-10-01 18:50:00,
2013-10-01 14:54:00,89.9,74.6,29.79,East,90,2.0,11.0,61,0.00,,,-99.99,677,WeatherLink 5.4,2013-10-01 18:54:00,
2013-10-01 15:09:00,89.9,74.2,29.79,East,90,3.0,12.0,60,0.00,,,-99.99,672,WeatherLink 5.4,2013-10-01 19:09:00,
2013-10-01 15:10:00,89.5,74.8,29.79,East,90,3.0,14.0,62,0.00,,,-99.99,645,WeatherLink 5.4,2013-10-01 19:10:00,
2013-10-01 15:20:00,89.1,73.4,29.79,East,90,4.0,14.0,60,0.00,,,-99.99,609,WeatherLink 5.4,2013-10-01 19:20:00,
2013-10-01 15:24:00,89.1,73.4,29.79,East,90,4.0,14.0,60,0.00,,,-99.99,609,WeatherLink 5.4,2013-10-01 19:24:00,
2013-10-01 15:39:00,88.9,72.7,29.79,East,90,2.0,11.0,59,0.00,,,-99.99,576,WeatherLink 5.4,2013-10-01 19:39:00,
2013-10-01 15:40:00,88.8,74.1,29.79,East,90,3.0,14.0,62,0.00,,,-99.99,538,WeatherLink 5.4,2013-10-01 19:40:00,
2013-10-01 15:50:00,88.9,74.2,29.79,ENE,67,3.0,13.0,62,0.00,,,-99.99,522,WeatherLink 5.4,2013-10-01 19:50:00,
2013-10-01 15:54:00,88.9,74.2,29.79,ENE,67,3.0,13.0,62,0.00,,,-99.99,522,WeatherLink 5.4,2013-10-01 19:54:00,
2013-10-01 16:09:00,88.7,73.0,29.79,East,90,3.0,12.0,60,0.00,,,-99.99,499,WeatherLink 5.4,2013-10-01 20:09:00,
2013-10-01 16:10:00,88.8,73.1,29.79,East,90,1.0,8.0,60,0.00,,,-99.99,453,WeatherLink 5.4,2013-10-01 20:10:00,
2013-10-01 16:20:00,89.0,73.8,29.79,East,90,1.0,10.0,61,0.00,,,-99.99,414,WeatherLink 5.4,2013-10-01 20:20:00,
2013-10-01 16:24:00,89.0,73.8,29.79,East,90,1.0,10.0,61,0.00,,,-99.99,414,WeatherLink 5.4,2013-10-01 20:24:00,
2013-10-01 16:39:00,88.7,74.0,29.80,ENE,67,2.0,11.0,62,0.00,,,-99.99,367,WeatherLink 5.4,2013-10-01 20:39:00,
2013-10-01 16:40:00,88.4,74.2,29.80,East,90,1.0,8.0,63,0.00,,,-99.99,326,WeatherLink 5.4,2013-10-01 20:40:00,
2013-10-01 16:50:00,88.4,73.2,29.80,ENE,67,0.0,7.0,61,0.00,,,-99.99,297,WeatherLink 5.4,2013-10-01 20:50:00,
2013-10-01 16:54:00,88.4,73.2,29.80,ENE,67,0.0,7.0,61,0.00,,,-99.99,297,WeatherLink 5.4,2013-10-01 20:54:00,
2013-10-01 17:08:00,88.4,73.2,29.80,East,90,2.0,10.0,61,0.00,,,-99.99,281,WeatherLink 5.4,2013-10-01 21:08:00,
2013-10-01 17:10:00,88.1,73.4,29.80,East,90,2.0,11.0,62,0.00,,,-99.99,222,WeatherLink 5.4,2013-10-01 21:10:00,
2013-10-01 17:20:00,87.6,73.4,29.81,East,90,2.0,10.0,63,0.00,,,-99.99,153,WeatherLink 5.4,2013-10-01 21:20:00,
2013-10-01 17:30:00,87.3,73.2,29.81,East,90,2.0,11.0,63,0.00,,,-99.99,132,WeatherLink 5.4,2013-10-01 21:30:00,
2013-10-01 17:40:00,87.0,73.3,29.81,East,90,2.0,10.0,64,0.00,,,-99.99,92,WeatherLink 5.4,2013-10-01 21:40:00,
2013-10-01 17:50:00,86.6,73.4,29.81,East,90,1.0,11.0,65,0.00,,,-99.99,33,WeatherLink 5.4,2013-10-01 21:50:00,
2013-10-01 17:55:00,86.6,73.4,29.81,East,90,1.0,11.0,65,0.00,,,-99.99,33,WeatherLink 5.4,2013-10-01 21:55:00,
2013-10-01 18:09:00,86.4,74.1,29.81,East,90,0.0,7.0,67,0.00,,,-99.99,24,WeatherLink 5.4,2013-10-01 22:09:00,
2013-10-01 18:10:00,86.1,74.7,29.81,East,90,1.0,10.0,69,0.00,,,-99.99,19,WeatherLink 5.4,2013-10-01 22:10:00,
2013-10-01 18:20:00,85.9,75.0,29.81,ESE,112,0.0,3.0,70,0.00,,,-99.99,3,WeatherLink 5.4,2013-10-01 22:20:00,
2013-10-01 18:24:00,85.9,75.0,29.81,ESE,112,0.0,3.0,70,0.00,,,-99.99,3,WeatherLink 5.4,2013-10-01 22:24:00,
2013-10-01 18:39:00,85.6,74.3,29.81,North,-999,0.0,0.0,69,0.00,,,-99.99,0,WeatherLink 5.4,2013-10-01 22:39:00,
2013-10-01 18:40:00,85.4,75.3,29.81,North,-999,0.0,0.0,72,0.01,,,-99.99,0,WeatherLink 5.4,2013-10-01 22:40:00,
2013-10-01 18:50:00,85.0,76.2,29.81,East,90,0.0,5.0,75,0.02,,,-99.99,0,WeatherLink 5.4,2013-10-01 22:50:00,
2013-10-01 18:54:00,85.0,76.2,29.81,East,90,0.0,5.0,75,0.02,,,-99.99,0,WeatherLink 5.4,2013-10-01 22:54:00,
2013-10-01 19:09:00,84.2,76.2,29.82,East,90,0.0,7.0,77,0.02,,,-99.99,0,WeatherLink 5.4,2013-10-01 23:09:00,
2013-10-01 19:10:00,83.5,75.1,29.82,East,90,1.0,7.0,76,0.02,,,-99.99,0,WeatherLink 5.4,2013-10-01 23:10:00,
2013-10-01 19:20:00,83.4,75.0,29.82,East,90,0.0,6.0,76,0.02,,,-99.99,0,WeatherLink 5.4,2013-10-01 23:20:00,
2013-10-01 19:24:00,83.4,75.0,29.82,East,90,0.0,6.0,76,0.02,,,-99.99,0,WeatherLink 5.4,2013-10-01 23:24:00,
2013-10-01 19:39:00,83.4,75.0,29.83,ENE,67,1.0,7.0,76,0.02,,,-99.99,0,WeatherLink 5.4,2013-10-01 23:39:00,
2013-10-01 19:40:00,83.4,75.0,29.83,North,-999,0.0,0.0,76,0.01,,,-99.99,0,WeatherLink 5.4,2013-10-01 23:40:00,
2013-10-01 19:50:00,83.4,75.0,29.83,East,90,0.0,9.0,76,0.00,,,-99.99,0,WeatherLink 5.4,2013-10-01 23:50:00,
2013-10-01 19:53:00,83.4,75.0,29.83,East,90,0.0,9.0,76,0.00,,,-99.99,0,WeatherLink 5.4,2013-10-01 23:53:00,
2013-10-01 20:00:00,83.4,74.6,29.83,East,90,1.0,7.0,75,0.00,,,-99.99,0,WeatherLink 5.4,2013-10-02 00:00:00,
2013-10-01 20:10:00,83.4,74.6,29.83,ENE,67,0.0,7.0,75,0.00,,,-99.99,0,WeatherLink 5.4,2013-10-02 00:10:00,
2013-10-01 20:20:00,83.4,74.6,29.83,North,-999,0.0,0.0,75,0.00,,,-99.99,0,WeatherLink 5.4,2013-10-02 00:20:00,
2013-10-01 20:24:00,83.4,74.6,29.83,North,-999,0.0,0.0,75,0.00,,,-99.99,0,WeatherLink 5.4,2013-10-02 00:24:00,
2013-10-01 20:39:00,83.4,75.0,29.83,North,-999,0.0,0.0,76,0.00,,,-99.99,0,WeatherLink 5.4,2013-10-02 00:39:00,
2013-10-01 20:40:00,83.3,74.9,29.83,East,90,0.0,7.0,76,0.00,,,-99.99,0,WeatherLink 5.4,2013-10-02 00:40:00,
2013-10-01 20:50:00,83.2,74.8,29.83,East,90,0.0,7.0,76,0.00,,,-99.99,0,WeatherLink 5.4,2013-10-02 00:50:00,
2013-10-01 20:54:00,83.2,74.8,29.83,East,90,0.0,7.0,76,0.00,,,-99.99,0,WeatherLink 5.4,2013-10-02 00:54:00,
2013-10-01 21:09:00,83.2,74.8,29.83,ENE,67,0.0,5.0,76,0.00,,,-99.99,0,WeatherLink 5.4,2013-10-02 01:09:00,
2013-10-01 21:10:00,83.2,75.2,29.83,ENE,67,0.0,3.0,77,0.00,,,-99.99,0,WeatherLink 5.4,2013-10-02 01:10:00,
2013-10-01 21:20:00,83.2,75.2,29.83,North,-999,0.0,0.0,77,0.00,,,-99.99,0,WeatherLink 5.4,2013-10-02 01:20:00,
2013-10-01 21:24:00,83.2,75.2,29.83,North,-999,0.0,0.0,77,0.00,,,-99.99,0,WeatherLink 5.4,2013-10-02 01:24:00,
2013-10-01 21:39:00,83.2,75.2,29.83,East,90,0.0,7.0,77,0.00,,,-99.99,0,WeatherLink 5.4,2013-10-02 01:39:00,
2013-10-01 21:40:00,83.2,75.2,29.83,North,-999,0.0,0.0,77,0.00,,,-99.99,0,WeatherLink 5.4,2013-10-02 01:40:00,
2013-10-01 21:50:00,83.0,75.4,29.84,North,-999,0.0,0.0,78,0.00,,,-99.99,0,WeatherLink 5.4,2013-10-02 01:50:00,
2013-10-01 21:54:00,83.0,75.4,29.84,North,-999,0.0,0.0,78,0.00,,,-99.99,0,WeatherLink 5.4,2013-10-02 01:54:00,
2013-10-01 22:09:00,83.0,74.3,29.84,East,90,2.0,12.0,75,0.00,,,-99.99,0,WeatherLink 5.4,2013-10-02 02:09:00,
2013-10-01 22:10:00,82.3,74.4,29.84,East,90,1.0,10.0,77,0.00,,,-99.99,0,WeatherLink 5.4,2013-10-02 02:10:00,
2013-10-01 22:20:00,81.4,73.9,29.84,North,-999,0.0,0.0,78,0.00,,,-99.99,0,WeatherLink 5.4,2013-10-02 02:20:00,
2013-10-01 22:24:00,81.4,73.9,29.84,North,-999,0.0,0.0,78,0.00,,,-99.99,0,WeatherLink 5.4,2013-10-02 02:24:00,
2013-10-01 22:39:00,80.8,74.0,29.84,North,-999,0.0,0.0,80,0.02,,,-99.99,0,WeatherLink 5.4,2013-10-02 02:39:00,
2013-10-01 22:40:00,80.2,75.3,29.84,North,-999,0.0,0.0,85,0.07,,,-99.99,0,WeatherLink 5.4,2013-10-02 02:40:00,
2013-10-01 22:50:00,80.1,75.9,29.84,North,-999,0.0,0.0,87,0.07,,,-99.99,0,WeatherLink 5.4,2013-10-02 02:50:00,
2013-10-01 22:54:00,80.1,75.9,29.84,North,-999,0.0,0.0,87,0.07,,,-99.99,0,WeatherLink 5.4,2013-10-02 02:54:00,
2013-10-01 23:09:00,80.1,75.9,29.84,North,-999,0.0,0.0,87,0.07,,,-99.99,0,WeatherLink 5.4,2013-10-02 03:09:00,
2013-10-01 23:10:00,79.9,75.7,29.84,North,-999,0.0,0.0,87,0.07,,,-99.99,0,WeatherLink 5.4,2013-10-02 03:10:00,
2013-10-01 23:20:00,79.8,75.6,29.84,North,-999,0.0,0.0,87,0.07,,,-99.99,0,WeatherLink 5.4,2013-10-02 03:20:00,
2013-10-01 23:24:00,79.8,75.6,29.84,North,-999,0.0,0.0,87,0.07,,,-99.99,0,WeatherLink 5.4,2013-10-02 03:24:00,
2013-10-01 23:39:00,79.6,75.4,29.84,North,-999,0.0,0.0,87,0.05,,,-99.99,0,WeatherLink 5.4,2013-10-02 03:39:00,
2013-10-01 23:40:00,79.3,75.4,29.84,North,-999,0.0,0.0,88,0.00,,,-99.99,0,WeatherLink 5.4,2013-10-02 03:40:00,
2013-10-01 23:50:00,79.0,75.1,29.83,North,-999,0.0,0.0,88,0.00,,,-99.99,0,WeatherLink 5.4,2013-10-02 03:50:00,
2013-10-01 23:54:00,79.0,75.1,29.83,North,-999,0.0,0.0,88,0.00,,,-99.99,0,WeatherLink 5.4,2013-10-02 03:54:00,